Regional Weather Roundup
Issued by NWS Huntsville, AL

Home | Current Version | Previous Version | Text Only | Print | Product List | Glossary On
Versions: 1 2 3 4 5 6 7 8 9 10 11 12 13 14 15 16 17 18 19 20 21 22 23 24 25 26 27 28 29 30 31 32 33 34 35 36 37 38 39 40 41 42 43 44 45 46 47 48 49 50
000
ASUS44 KHUN 290124
RWRHUN

WEATHER ROUNDUP FOR THE TENNESSEE VALLEY
NATIONAL WEATHER SERVICE HUNTSVILLE AL
800 PM CDT MON JUL 28 2014

ALZ001>004-290200-
NORTHWEST ALABAMA

CITY           SKY/WX    TMP DP  RH WIND       PRES   REMARKS
COURTLAND HCN    N/A     77 N/A N/A N3          N/A
RUSSELLVILLE     N/A     72 N/A N/A MISG        N/A
SHOALS AIRPORT PTCLDY    78  62  57 N5        30.02R
SHOALS TVA RES   N/A     79 N/A N/A MISG        N/A
$$

ALZ005>007-016-290200-
NORTH CENTRAL ALABAMA

CITY           SKY/WX    TMP DP  RH WIND       PRES   REMARKS
CULLMAN AG STN   N/A     75 N/A N/A N3          N/A
DECATUR AP     CLEAR     76  62  62 NW7       30.00R
HUNTSVILLE AP  PTCLDY    76  62  62 NW6       29.99R
HUN NWS/UAH      N/A     77  60  54 N5          N/A
MERIDIANVILLE  CLEAR     72  59  64 NW3       30.00R
VINEMONT AP    FAIR      70  63  77 CALM      30.03R
$$

ALZ008>010-290200-
NORTHEAST ALABAMA

CITY           SKY/WX    TMP DP  RH WIND       PRES   REMARKS
ALBERTVILLE    CLEAR     75  64  69 NW5       30.00R
CROSSVILLE       N/A     70 N/A N/A CALM        N/A
FORT PAYNE     PTCLDY    73  57  56 NW3       29.98S
SCOTTSBORO AP  CLEAR     73  66  78 CALM      29.99R
SCOTTSBORO HCN   N/A     73 N/A N/A MISG        N/A
VALLEY HEAD      N/A     72 N/A N/A MISG        N/A
$$

TNZ076-096-097-290200-
SOUTHEASTERN MIDDLE TENNESSEE

CITY           SKY/WX    TMP DP  RH WIND       PRES   REMARKS
FAYETTEVILLE   CLEAR     73  59  60 NW10      30.01R
TULLAHOMA      PTCLDY    70  59  68 N3        30.02S
WINCHESTER     PTCLDY    73  61  64 VRB3      30.01R
$$

...SURROUNDING SITES...

CITY           SKY/WX    TMP DP  RH WIND       PRES   REMARKS
ATLANTA        PTCLDY    80  59  48 NW9       29.95R
ANNISTON       PTCLDY    81  59  47 N8        29.96S
BIRMINGHAM     PTCLDY    79  59  50 N7        30.00R
CHATTANOOGA    PTCLDY    77  61  57 NW8       29.97R
CORINTH        FAIR      73  64  73 CALM      30.02R
DALTON         CLEAR     72  63  73 CALM      29.96S
GADSDEN        CLEAR     75  63  64 NW3       29.97S
GOLDEN TRNGL   CLEAR     77  64  65 N5        30.01R
HALEYVILLE     FAIR      73  65  76 CALM      30.04S
JACKSON TN     CLEAR     76  63  64 N3        30.02S
LEWISBURG      FAIR      75  61  62 NW3       30.00R
MEMPHIS        PTCLDY    80  62  54 N9        30.02S
MURFREESBORO   FAIR      77  58  51 N5        29.99R
NASHVILLE      PTCLDY    77  58  51 N7        30.00R
OXFORD MS      FAIR      75  63  64 NE3       30.05R
ROME           CLEAR     76  61  59 W5        29.96R
SAVANNAH       CLEAR     73  64  73 CALM      30.02S
TUPELO         CLEAR     78  63  59 N7        30.01R
TUSCALOOSA     CLEAR     82  62  50 N8        29.97R
$$

...GULF COAST WEATHER...

CITY           SKY/WX    TMP DP  RH WIND       PRES   REMARKS
GULFPORT       PTCLDY    89  76  65 W5        29.96R HX 100
PASCAGOULA     MOCLDY    84  77  79 CALM      29.95R HX  94
MOBILE         CLOUDY    83  75  77 N10       29.97R HX  90
GULF SHORES      N/A     83  78  84 CALM      29.96R HX  93
PENSACOLA      CLOUDY    78  75  90 S5        29.94F
DESTIN         LGT RAIN  85  78  80 SE3       29.95S HX  96
PANAMA CITY    CLOUDY    84  80  85 W13       29.96R HX  97
APPALACHICOLA  CLOUDY    81  78  91 W7        29.96S
$$




USA.gov is the U.S. government's official web portal to all federal, state and local government web resources and services.